Time,TemperatureF,DewpointF,PressureIn,WindDirection,WindDirectionDegrees,WindSpeedMPH,WindSpeedGustMPH,Humidity,HourlyPrecipIn,Conditions,Clouds,dailyrainin,SoftwareType,DateUTC
2013-04-17 00:03:00,50.0,49.0,29.71,SW,226,1.0,3.0,97,0.00,,,-99.99,,2013-04-17 04:03:00,
2013-04-17 00:13:00,50.0,49.0,29.71,SW,226,1.0,3.0,97,0.00,,,-99.99,,2013-04-17 04:13:00,
2013-04-17 00:22:00,51.0,50.0,29.73,WSW,243,2.0,5.0,97,0.00,,,-99.99,,2013-04-17 04:22:00,
2013-04-17 00:33:00,51.0,50.0,29.73,SW,222,1.0,5.0,97,0.00,,,-99.99,,2013-04-17 04:33:00,
2013-04-17 00:42:00,51.0,50.0,29.73,SW,222,1.0,5.0,97,0.00,,,-99.99,,2013-04-17 04:42:00,
2013-04-17 00:52:00,51.0,50.0,29.71,SW,226,1.0,3.0,97,0.00,,,-99.99,,2013-04-17 04:52:00,
2013-04-17 01:02:00,51.0,50.0,29.71,SW,225,2.0,5.0,96,0.00,,,-99.99,,2013-04-17 05:02:00,
2013-04-17 01:12:00,51.0,50.0,29.71,SW,225,2.0,5.0,96,0.00,,,-99.99,,2013-04-17 05:12:00,
2013-04-17 01:22:00,51.0,50.0,29.71,WSW,238,2.0,4.0,95,0.00,,,-99.99,,2013-04-17 05:22:00,
2013-04-17 01:32:00,52.0,51.0,29.71,SW,233,1.0,3.0,95,0.00,,,-99.99,,2013-04-17 05:32:00,
2013-04-17 01:42:00,52.0,51.0,29.71,SW,233,1.0,3.0,95,0.00,,,-99.99,,2013-04-17 05:42:00,
2013-04-17 01:52:00,53.0,51.0,29.71,SW,235,1.0,3.0,93,0.00,,,-99.99,,2013-04-17 05:52:00,
2013-04-17 02:02:00,54.0,51.0,29.71,WSW,245,2.0,5.0,91,0.00,,,-99.99,,2013-04-17 06:02:00,
2013-04-17 02:12:00,54.0,51.0,29.71,WSW,245,2.0,5.0,91,0.00,,,-99.99,,2013-04-17 06:12:00,
2013-04-17 02:22:00,54.0,51.0,29.71,WSW,256,0.0,3.0,90,0.00,,,-99.99,,2013-04-17 06:22:00,
2013-04-17 02:32:00,54.0,51.0,29.71,West,270,1.0,3.0,90,0.00,,,-99.99,,2013-04-17 06:32:00,
2013-04-17 02:42:00,54.0,51.0,29.71,West,270,1.0,3.0,90,0.00,,,-99.99,,2013-04-17 06:42:00,
2013-04-17 02:52:00,54.0,51.0,29.71,WSW,239,1.0,3.0,90,0.00,,,-99.99,,2013-04-17 06:52:00,
2013-04-17 03:02:00,54.0,51.0,29.71,WSW,244,0.0,2.0,90,0.00,,,-99.99,,2013-04-17 07:02:00,
2013-04-17 03:12:00,54.0,51.0,29.71,WSW,244,0.0,2.0,90,0.00,,,-99.99,,2013-04-17 07:12:00,
2013-04-17 03:22:00,54.0,51.0,29.71,WSW,239,0.0,2.0,90,0.00,,,-99.99,,2013-04-17 07:22:00,
2013-04-17 03:32:00,54.0,51.0,29.71,WSW,249,0.0,1.0,90,0.00,,,-99.99,,2013-04-17 07:32:00,
2013-04-17 03:42:00,54.0,51.0,29.71,WSW,249,0.0,1.0,90,0.00,,,-99.99,,2013-04-17 07:42:00,
2013-04-17 03:52:00,54.0,51.0,29.71,WSW,247,0.0,0.0,90,0.00,,,-99.99,,2013-04-17 07:52:00,
2013-04-17 04:02:00,54.0,51.0,29.71,WSW,241,0.0,2.0,90,0.00,,,-99.99,,2013-04-17 08:02:00,
2013-04-17 04:12:00,54.0,51.0,29.71,WSW,241,0.0,2.0,90,0.00,,,-99.99,,2013-04-17 08:12:00,
2013-04-17 04:22:00,54.0,51.0,29.71,WSW,237,1.0,2.0,90,0.00,,,-99.99,,2013-04-17 08:22:00,
2013-04-17 04:32:00,54.0,51.0,29.71,WSW,238,1.0,2.0,90,0.00,,,-99.99,,2013-04-17 08:32:00,
2013-04-17 04:42:00,54.0,51.0,29.71,WSW,238,1.0,2.0,90,0.00,,,-99.99,,2013-04-17 08:42:00,
2013-04-17 04:52:00,55.0,52.0,29.71,WSW,249,0.0,1.0,91,0.00,,,-99.99,,2013-04-17 08:52:00,
2013-04-17 05:02:00,55.0,52.0,29.71,WSW,247,0.0,0.0,91,0.00,,,-99.99,,2013-04-17 09:02:00,
2013-04-17 05:12:00,55.0,52.0,29.71,WSW,247,0.0,0.0,91,0.00,,,-99.99,,2013-04-17 09:12:00,
2013-04-17 05:22:00,55.0,53.0,29.71,WSW,247,0.0,0.0,92,0.00,,,-99.99,,2013-04-17 09:22:00,
2013-04-17 05:33:00,55.0,53.0,29.71,WSW,243,0.0,1.0,92,0.00,,,-99.99,,2013-04-17 09:33:00,
2013-04-17 05:42:00,55.0,53.0,29.71,WSW,243,0.0,1.0,92,0.00,,,-99.99,,2013-04-17 09:42:00,
2013-04-17 05:52:00,55.0,52.0,29.71,SW,234,1.0,1.0,91,0.00,,,-99.99,,2013-04-17 09:52:00,
2013-04-17 06:02:00,55.0,53.0,29.71,West,270,0.0,0.0,92,0.00,,,-99.99,,2013-04-17 10:02:00,
2013-04-17 06:12:00,55.0,53.0,29.71,West,270,0.0,0.0,92,0.00,,,-99.99,,2013-04-17 10:12:00,
2013-04-17 06:23:00,55.0,53.0,29.71,West,264,0.0,0.0,92,0.00,,,-99.99,,2013-04-17 10:23:00,
2013-04-17 06:32:00,55.0,53.0,29.71,West,273,0.0,0.0,92,0.00,,,-99.99,,2013-04-17 10:32:00,
2013-04-17 06:42:00,55.0,53.0,29.71,West,273,0.0,0.0,92,0.00,,,-99.99,,2013-04-17 10:42:00,
2013-04-17 06:53:00,55.0,54.0,29.71,ENE,65,2.0,6.0,95,0.00,,,-99.99,,2013-04-17 10:53:00,
2013-04-17 07:02:00,53.0,51.0,29.71,ENE,63,1.0,3.0,94,0.00,,,-99.99,,2013-04-17 11:02:00,
2013-04-17 07:12:00,53.0,51.0,29.71,ENE,63,1.0,3.0,94,0.00,,,-99.99,,2013-04-17 11:12:00,
2013-04-17 07:22:00,53.0,52.0,29.74,ENE,62,1.0,3.0,95,0.00,,,-99.99,,2013-04-17 11:22:00,
2013-04-17 07:32:00,51.0,49.0,29.74,WSW,249,1.0,3.0,94,0.00,,,-99.99,,2013-04-17 11:32:00,
2013-04-17 07:42:00,51.0,49.0,29.74,WSW,249,1.0,3.0,94,0.00,,,-99.99,,2013-04-17 11:42:00,
2013-04-17 07:52:00,51.0,49.0,29.74,ENE,66,0.0,3.0,94,0.00,,,-99.99,,2013-04-17 11:52:00,
2013-04-17 08:03:00,51.0,49.0,29.76,ENE,60,2.0,4.0,92,0.00,,,-99.99,,2013-04-17 12:03:00,
2013-04-17 08:12:00,51.0,49.0,29.76,ENE,60,2.0,4.0,92,0.00,,,-99.99,,2013-04-17 12:12:00,
2013-04-17 08:22:00,51.0,48.0,29.77,ENE,73,2.0,4.0,89,0.00,,,-99.99,,2013-04-17 12:22:00,
2013-04-17 08:32:00,52.0,45.0,29.77,East,94,2.0,4.0,78,0.00,,,-99.99,,2013-04-17 12:32:00,
2013-04-17 08:42:00,52.0,45.0,29.77,East,94,2.0,4.0,78,0.00,,,-99.99,,2013-04-17 12:42:00,
2013-04-17 08:52:00,53.0,45.0,29.77,East,97,1.0,3.0,75,0.00,,,-99.99,,2013-04-17 12:52:00,
2013-04-17 09:02:00,55.0,45.0,29.77,ENE,67,1.0,3.0,70,0.00,,,-99.99,,2013-04-17 13:02:00,
2013-04-17 09:12:00,55.0,45.0,29.77,ENE,67,1.0,3.0,70,0.00,,,-99.99,,2013-04-17 13:12:00,
2013-04-17 09:22:00,56.0,45.0,29.77,ENE,61,1.0,4.0,67,0.00,,,-99.99,,2013-04-17 13:22:00,
2013-04-17 09:32:00,56.0,44.0,29.77,ENE,66,2.0,4.0,64,0.00,,,-99.99,,2013-04-17 13:32:00,
2013-04-17 09:42:00,56.0,44.0,29.77,ENE,66,2.0,4.0,64,0.00,,,-99.99,,2013-04-17 13:42:00,
2013-04-17 09:52:00,57.0,44.0,29.77,ENE,62,1.0,5.0,62,0.00,,,-99.99,,2013-04-17 13:52:00,
2013-04-17 10:02:00,60.0,45.0,29.77,ENE,68,1.0,3.0,58,0.00,,,-99.99,,2013-04-17 14:02:00,
2013-04-17 10:12:00,60.0,45.0,29.77,ENE,68,1.0,3.0,58,0.00,,,-99.99,,2013-04-17 14:12:00,
2013-04-17 10:22:00,60.0,45.0,29.77,ENE,68,1.0,3.0,58,0.00,,,-99.99,,2013-04-17 14:22:00,
2013-04-17 10:32:00,64.0,44.0,29.77,ENE,73,2.0,4.0,49,0.00,,,-99.99,,2013-04-17 14:32:00,
2013-04-17 10:42:00,68.0,45.0,29.77,ENE,64,2.0,4.0,43,0.00,,,-99.99,,2013-04-17 14:42:00,
2013-04-17 10:52:00,68.0,45.0,29.77,ENE,64,2.0,4.0,43,0.00,,,-99.99,,2013-04-17 14:52:00,
2013-04-17 11:02:00,70.0,45.0,29.77,ENE,66,2.0,6.0,40,0.00,,,-99.99,,2013-04-17 15:02:00,
2013-04-17 11:12:00,74.0,45.0,29.77,ENE,63,2.0,4.0,35,0.00,,,-99.99,,2013-04-17 15:12:00,
2013-04-17 11:22:00,74.0,45.0,29.77,ENE,63,2.0,4.0,35,0.00,,,-99.99,,2013-04-17 15:22:00,
2013-04-17 11:33:00,74.0,43.0,29.77,East,92,2.0,5.0,33,0.00,,,-99.99,,2013-04-17 15:33:00,
2013-04-17 11:43:00,74.0,43.0,29.77,East,92,2.0,5.0,33,0.00,,,-99.99,,2013-04-17 15:43:00,
2013-04-17 11:53:00,74.0,42.0,29.77,ENE,73,3.0,7.0,32,0.00,,,-99.99,,2013-04-17 15:53:00,
2013-04-17 12:03:00,74.0,41.0,29.77,ENE,68,2.0,6.0,31,0.00,,,-99.99,,2013-04-17 16:03:00,
2013-04-17 12:12:00,75.0,41.0,29.77,ENE,77,2.0,6.0,30,0.00,,,-99.99,,2013-04-17 16:12:00,
2013-04-17 12:23:00,75.0,41.0,29.77,ENE,77,2.0,6.0,30,0.00,,,-99.99,,2013-04-17 16:23:00,
2013-04-17 12:32:00,77.0,40.0,29.77,ENE,69,2.0,6.0,27,0.00,,,-99.99,,2013-04-17 16:32:00,
2013-04-17 12:42:00,77.0,40.0,29.77,ENE,69,2.0,6.0,27,0.00,,,-99.99,,2013-04-17 16:42:00,
2013-04-17 12:52:00,79.0,41.0,29.77,WNW,283,3.0,5.0,26,0.00,,,-99.99,,2013-04-17 16:52:00,
2013-04-17 13:02:00,77.0,40.0,29.77,ENE,63,2.0,6.0,27,0.00,,,-99.99,,2013-04-17 17:02:00,
2013-04-17 13:12:00,77.0,40.0,29.77,ENE,63,2.0,6.0,27,0.00,,,-99.99,,2013-04-17 17:12:00,
2013-04-17 13:22:00,78.0,39.0,29.75,WNW,297,2.0,6.0,25,0.00,,,-99.99,,2013-04-17 17:22:00,
2013-04-17 13:33:00,79.0,39.0,29.74,ENE,72,2.0,5.0,24,0.00,,,-99.99,,2013-04-17 17:33:00,
2013-04-17 13:42:00,79.0,39.0,29.74,ENE,72,2.0,5.0,24,0.00,,,-99.99,,2013-04-17 17:42:00,
2013-04-17 13:52:00,80.0,39.0,29.75,ENE,75,2.0,5.0,23,0.00,,,-99.99,,2013-04-17 17:52:00,
2013-04-17 14:02:00,82.0,38.0,29.75,ENE,76,2.0,6.0,21,0.00,,,-99.99,,2013-04-17 18:02:00,
2013-04-17 14:12:00,82.0,38.0,29.75,ENE,76,2.0,6.0,21,0.00,,,-99.99,,2013-04-17 18:12:00,
2013-04-17 14:22:00,78.0,37.0,29.76,NW,307,2.0,5.0,23,0.00,,,-99.99,,2013-04-17 18:22:00,
2013-04-17 14:32:00,78.0,36.0,29.77,ENE,70,2.0,5.0,22,0.00,,,-99.99,,2013-04-17 18:32:00,
2013-04-17 14:42:00,78.0,36.0,29.77,ENE,70,2.0,5.0,22,0.00,,,-99.99,,2013-04-17 18:42:00,
2013-04-17 14:52:00,75.0,37.0,29.77,ENE,68,2.0,6.0,25,0.00,,,-99.99,,2013-04-17 18:52:00,
2013-04-17 15:02:00,74.0,36.0,29.77,NE,37,2.0,4.0,25,0.00,,,-99.99,,2013-04-17 19:02:00,
2013-04-17 15:12:00,74.0,36.0,29.77,NE,37,2.0,4.0,25,0.00,,,-99.99,,2013-04-17 19:12:00,
2013-04-17 15:22:00,74.0,36.0,29.77,ENE,66,2.0,6.0,25,0.00,,,-99.99,,2013-04-17 19:22:00,
2013-04-17 15:32:00,75.0,36.0,29.74,ENE,69,2.0,4.0,24,0.00,,,-99.99,,2013-04-17 19:32:00,
2013-04-17 15:42:00,74.0,35.0,29.74,ENE,73,3.0,5.0,24,0.00,,,-99.99,,2013-04-17 19:42:00,
2013-04-17 15:52:00,74.0,35.0,29.74,ENE,73,3.0,5.0,24,0.00,,,-99.99,,2013-04-17 19:52:00,
2013-04-17 16:02:00,73.0,36.0,29.75,ENE,66,2.0,7.0,26,0.00,,,-99.99,,2013-04-17 20:02:00,
2013-04-17 16:12:00,73.0,36.0,29.75,ENE,66,2.0,7.0,26,0.00,,,-99.99,,2013-04-17 20:12:00,
2013-04-17 16:22:00,74.0,36.0,29.74,ENE,64,2.0,8.0,25,0.00,,,-99.99,,2013-04-17 20:22:00,
2013-04-17 16:32:00,74.0,37.0,29.74,East,100,2.0,8.0,26,0.00,,,-99.99,,2013-04-17 20:32:00,
2013-04-17 16:42:00,74.0,37.0,29.74,East,100,2.0,8.0,26,0.00,,,-99.99,,2013-04-17 20:42:00,
2013-04-17 16:52:00,74.0,37.0,29.74,ENE,65,2.0,6.0,26,0.00,,,-99.99,,2013-04-17 20:52:00,
2013-04-17 17:03:00,74.0,36.0,29.74,ENE,65,2.0,5.0,25,0.00,,,-99.99,,2013-04-17 21:03:00,
2013-04-17 17:12:00,74.0,36.0,29.74,ENE,65,2.0,5.0,25,0.00,,,-99.99,,2013-04-17 21:12:00,
2013-04-17 17:22:00,74.0,36.0,29.74,ENE,65,2.0,5.0,25,0.00,,,-99.99,,2013-04-17 21:22:00,
2013-04-17 17:33:00,74.0,36.0,29.77,East,95,1.0,3.0,25,0.00,,,-99.99,,2013-04-17 21:33:00,
2013-04-17 17:42:00,77.0,35.0,29.77,ESE,112,1.0,3.0,22,0.00,,,-99.99,,2013-04-17 21:42:00,
2013-04-17 17:53:00,77.0,35.0,29.77,ESE,112,1.0,3.0,22,0.00,,,-99.99,,2013-04-17 21:53:00,
2013-04-17 18:02:00,76.0,36.0,29.77,SW,225,1.0,3.0,23,0.00,,,-99.99,,2013-04-17 22:02:00,
2013-04-17 18:12:00,73.0,35.0,29.77,SSE,154,1.0,4.0,25,0.00,,,-99.99,,2013-04-17 22:12:00,
2013-04-17 18:22:00,73.0,35.0,29.77,SSE,154,1.0,4.0,25,0.00,,,-99.99,,2013-04-17 22:22:00,
2013-04-17 18:33:00,74.0,35.0,29.77,ESE,102,1.0,3.0,24,0.00,,,-99.99,,2013-04-17 22:33:00,
2013-04-17 18:42:00,76.0,36.0,29.77,SSW,203,1.0,3.0,23,0.00,,,-99.99,,2013-04-17 22:42:00,
2013-04-17 18:53:00,76.0,36.0,29.77,SSW,203,1.0,3.0,23,0.00,,,-99.99,,2013-04-17 22:53:00,
2013-04-17 19:02:00,72.0,42.0,29.77,SSW,212,1.0,3.0,34,0.00,,,-99.99,,2013-04-17 23:02:00,
2013-04-17 19:12:00,68.0,40.0,29.77,SSW,201,1.0,3.0,36,0.00,,,-99.99,,2013-04-17 23:12:00,
2013-04-17 19:22:00,68.0,40.0,29.77,SSW,201,1.0,3.0,36,0.00,,,-99.99,,2013-04-17 23:22:00,
2013-04-17 19:32:00,62.0,38.0,29.77,SSW,212,1.0,3.0,41,0.00,,,-99.99,,2013-04-17 23:32:00,
2013-04-17 19:42:00,60.0,38.0,29.77,WSW,241,0.0,2.0,44,0.00,,,-99.99,,2013-04-17 23:42:00,
2013-04-17 19:52:00,60.0,38.0,29.77,WSW,241,0.0,2.0,44,0.00,,,-99.99,,2013-04-17 23:52:00,
2013-04-17 20:02:00,58.0,37.0,29.77,SW,228,0.0,2.0,46,0.00,,,-99.99,,2013-04-18 00:02:00,
2013-04-17 20:12:00,57.0,38.0,29.77,SW,235,0.0,0.0,48,0.00,,,-99.99,,2013-04-18 00:12:00,
2013-04-17 20:22:00,57.0,38.0,29.77,SW,235,0.0,0.0,48,0.00,,,-99.99,,2013-04-18 00:22:00,
2013-04-17 20:32:00,56.0,38.0,29.79,SW,216,0.0,1.0,51,0.00,,,-99.99,,2013-04-18 00:32:00,
2013-04-17 20:42:00,55.0,37.0,29.80,WSW,243,0.0,3.0,51,0.00,,,-99.99,,2013-04-18 00:42:00,
2013-04-17 20:52:00,55.0,37.0,29.80,WSW,243,0.0,3.0,51,0.00,,,-99.99,,2013-04-18 00:52:00,
2013-04-17 21:02:00,55.0,40.0,29.80,SW,234,0.0,2.0,56,0.00,,,-99.99,,2013-04-18 01:02:00,
2013-04-17 21:12:00,54.0,40.0,29.80,WSW,239,0.0,3.0,59,0.00,,,-99.99,,2013-04-18 01:12:00,
2013-04-17 21:22:00,54.0,40.0,29.80,WSW,239,0.0,3.0,59,0.00,,,-99.99,,2013-04-18 01:22:00,
2013-04-17 21:32:00,53.0,40.0,29.80,WSW,243,0.0,2.0,62,0.00,,,-99.99,,2013-04-18 01:32:00,
2013-04-17 21:42:00,52.0,40.0,29.80,WSW,246,0.0,1.0,64,0.00,,,-99.99,,2013-04-18 01:42:00,
2013-04-17 21:52:00,52.0,40.0,29.80,WSW,246,0.0,1.0,64,0.00,,,-99.99,,2013-04-18 01:52:00,
2013-04-17 22:02:00,51.0,40.0,29.80,WSW,247,0.0,0.0,65,0.00,,,-99.99,,2013-04-18 02:02:00,
2013-04-17 22:12:00,50.0,40.0,29.80,WSW,244,0.0,0.0,68,0.00,,,-99.99,,2013-04-18 02:12:00,
2013-04-17 22:22:00,50.0,40.0,29.80,WSW,244,0.0,0.0,68,0.00,,,-99.99,,2013-04-18 02:22:00,
2013-04-17 22:32:00,49.0,40.0,29.80,WSW,237,0.0,0.0,70,0.00,,,-99.99,,2013-04-18 02:32:00,
2013-04-17 22:42:00,49.0,40.0,29.80,WSW,237,0.0,0.0,70,0.00,,,-99.99,,2013-04-18 02:42:00,
2013-04-17 22:52:00,49.0,40.0,29.80,WSW,237,0.0,0.0,70,0.00,,,-99.99,,2013-04-18 02:52:00,
2013-04-17 23:02:00,48.0,40.0,29.80,WSW,244,0.0,0.0,73,0.00,,,-99.99,,2013-04-18 03:02:00,
2013-04-17 23:12:00,48.0,40.0,29.80,SW,223,0.0,0.0,74,0.00,,,-99.99,,2013-04-18 03:12:00,
2013-04-17 23:22:00,48.0,40.0,29.80,SW,223,0.0,0.0,74,0.00,,,-99.99,,2013-04-18 03:22:00,
2013-04-17 23:33:00,47.0,40.0,29.80,WSW,246,0.0,0.0,76,0.00,,,-99.99,,2013-04-18 03:33:00,
2013-04-17 23:43:00,47.0,40.0,29.80,WSW,247,0.0,0.0,77,0.00,,,-99.99,,2013-04-18 03:43:00,
2013-04-17 23:53:00,47.0,40.0,29.80,WSW,247,0.0,0.0,77,0.00,,,-99.99,,2013-04-18 03:53:00,